| time (UTC) | temp F | wind direction | speed MPH | gust MPH | rain 1hr in | rain 24hr in | rain mn in | humidity % | barometer mb |
| 20260507223100 | 47 | 0 | 0.0 | 1.0 | 0.00 | 0.00 | 0.00 | 83 | 1016.9 |
| 20260507221600 | 47 | 38 | 0.0 | 4.0 | 0.00 | 0.00 | 0.00 | 84 | 1017.1 |
| 20260507220101 | 47 | 103 | 1.0 | 3.0 | 0.00 | 0.00 | 0.00 | 84 | 1017.1 |
| 20260507214613 | 47 | 74 | 2.0 | 4.0 | 0.00 | 0.00 | 0.00 | 83 | 1017.1 |
| 20260507213109 | 48 | 112 | 1.0 | 3.0 | 0.00 | 0.00 | 0.00 | 82 | 1017.2 |
| 20260507211555 | 48 | 92 | 0.0 | 4.0 | 0.00 | 0.00 | 0.00 | 82 | 1017.1 |
| 20260507210100 | 48 | 82 | 1.0 | 3.0 | 0.00 | 0.00 | 0.00 | 81 | 1017.0 |
| 20260507204612 | 49 | 90 | 0.0 | 3.0 | 0.00 | 0.00 | 0.00 | 81 | 1017.0 |
| 20260507203056 | 49 | 101 | 0.0 | 4.0 | 0.00 | 0.00 | 0.00 | 81 | 1016.9 |
| 20260507201603 | 50 | 114 | 2.0 | 4.0 | 0.00 | 0.00 | 0.00 | 80 | 1016.8 |
| 20260507200053 | 50 | 131 | 2.0 | 6.0 | 0.00 | 0.00 | 0.00 | 79 | 1016.6 |
| 20260507194555 | 50 | 128 | 2.0 | 7.0 | 0.00 | 0.00 | 0.00 | 79 | 1016.4 |
| 20260507193108 | 51 | 110 | 3.0 | 9.0 | 0.00 | 0.00 | 0.00 | 78 | 1016.3 |
| 20260507191554 | 51 | 134 | 4.0 | 9.0 | 0.00 | 0.00 | 0.00 | 77 | 1016.3 |
| 20260507190104 | 52 | 110 | 5.0 | 13.0 | 0.00 | 0.00 | 0.00 | 76 | 1016.3 |
| 20260507184556 | 52 | 110 | 5.0 | 14.0 | 0.00 | 0.00 | 0.00 | 74 | 1016.3 |
| 20260507183100 | 53 | 128 | 5.0 | 11.0 | 0.00 | 0.00 | 0.00 | 74 | 1016.2 |
| 20260507181557 | 53 | 134 | 4.0 | 10.0 | 0.00 | 0.00 | 0.00 | 73 | 1016.2 |
| 20260507180104 | 53 | 117 | 6.0 | 11.0 | 0.00 | 0.00 | 0.00 | 71 | 1016.1 |
| 20260507174556 | 53 | 114 | 7.0 | 12.0 | 0.00 | 0.00 | 0.00 | 70 | 1016.2 |
| 20260507173057 | 53 | 130 | 5.0 | 13.0 | 0.00 | 0.00 | 0.00 | 69 | 1016.1 |
| 20260507171602 | 54 | 120 | 7.0 | 11.0 | 0.00 | 0.00 | 0.00 | 68 | 1016.1 |
| 20260507170054 | 54 | 137 | 5.0 | 10.0 | 0.00 | 0.00 | 0.00 | 68 | 1016.2 |
| 20260507164556 | 54 | 146 | 5.0 | 10.0 | 0.00 | 0.00 | 0.00 | 68 | 1016.3 |
| 20260507163057 | 54 | 128 | 6.0 | 11.0 | 0.00 | 0.00 | 0.00 | 67 | 1016.2 |
| 20260507161556 | 54 | 95 | 4.0 | 10.0 | 0.00 | 0.00 | 0.00 | 67 | 1016.2 |
| 20260507160100 | 54 | 105 | 6.0 | 9.0 | 0.00 | 0.00 | 0.00 | 67 | 1016.1 |
| 20260507154555 | 54 | 106 | 5.0 | 11.0 | 0.00 | 0.00 | 0.00 | 67 | 1016.2 |
| 20260507153057 | 54 | 130 | 5.0 | 10.0 | 0.00 | 0.00 | 0.00 | 68 | 1016.2 |
| 20260507151554 | 55 | 67 | 5.0 | 12.0 | 0.00 | 0.00 | 0.00 | 68 | 1016.1 |
| 20260507150054 | 55 | 113 | 6.0 | 11.0 | 0.00 | 0.00 | 0.00 | 67 | 1016.2 |
| 20260507144558 | 56 | 122 | 6.0 | 12.0 | 0.00 | 0.00 | 0.00 | 65 | 1016.1 |
| 20260507143056 | 56 | 135 | 6.0 | 11.0 | 0.00 | 0.00 | 0.00 | 63 | 1016.2 |
| 20260507141601 | 55 | 157 | 5.0 | 10.0 | 0.00 | 0.00 | 0.00 | 64 | 1016.3 |
| 20260507140111 | 55 | 155 | 5.0 | 12.0 | 0.00 | 0.00 | 0.00 | 65 | 1016.3 |
| 20260507134559 | 55 | 128 | 5.0 | 9.0 | 0.00 | 0.00 | 0.00 | 64 | 1016.3 |
| 20260507133059 | 55 | 142 | 3.0 | 8.0 | 0.00 | 0.00 | 0.00 | 65 | 1016.4 |
| 20260507131604 | 54 | 88 | 3.0 | 8.0 | 0.00 | 0.00 | 0.00 | 66 | 1016.4 |
| 20260507130110 | 54 | 123 | 3.0 | 8.0 | 0.00 | 0.00 | 0.00 | 66 | 1016.4 |
| 20260507124606 | 54 | 107 | 4.0 | 8.0 | 0.00 | 0.00 | 0.00 | 67 | 1016.6 |
| 20260507123100 | 54 | 114 | 4.0 | 8.0 | 0.00 | 0.00 | 0.00 | 66 | 1016.5 |
| 20260507121557 | 54 | 109 | 5.0 | 10.0 | 0.00 | 0.00 | 0.00 | 67 | 1016.5 |
| 20260507120056 | 54 | 105 | 3.0 | 9.0 | 0.00 | 0.00 | 0.00 | 65 | 1016.4 |
| 20260507114607 | 54 | 117 | 4.0 | 9.0 | 0.00 | 0.00 | 0.00 | 65 | 1016.6 |
| 20260507113103 | 54 | 118 | 5.0 | 9.0 | 0.00 | 0.00 | 0.00 | 65 | 1016.5 |
| 20260507111559 | 54 | 99 | 5.0 | 9.0 | 0.00 | 0.00 | 0.00 | 65 | 1016.6 |
| 20260507110104 | 54 | 117 | 3.0 | 9.0 | 0.00 | 0.00 | 0.00 | 65 | 1016.6 |
| 20260507104557 | 54 | 128 | 3.0 | 9.0 | 0.00 | 0.00 | 0.00 | 66 | 1016.6 |
| 20260507103059 | 54 | 48 | 2.0 | 8.0 | 0.00 | 0.00 | 0.00 | 66 | 1016.7 |
| 20260507101558 | 54 | 89 | 4.0 | 9.0 | 0.00 | 0.00 | 0.00 | 66 | 1016.7 |
| 20260507100059 | 54 | 132 | 4.0 | 7.0 | 0.00 | 0.00 | 0.00 | 65 | 1016.6 |
| 20260507094555 | 54 | 117 | 0.0 | 7.0 | 0.00 | 0.00 | 0.00 | 66 | 1016.5 |
| 20260507093055 | 54 | 0 | 0.0 | 5.0 | 0.00 | 0.00 | 0.00 | 67 | 1016.6 |
| 20260507091601 | 54 | 87 | 4.0 | 8.0 | 0.00 | 0.00 | 0.00 | 64 | 1016.6 |
| 20260507090056 | 54 | 120 | 3.0 | 8.0 | 0.00 | 0.00 | 0.00 | 66 | 1016.5 |
| 20260507084559 | 53 | 96 | 3.0 | 8.0 | 0.00 | 0.00 | 0.00 | 68 | 1016.4 |
| 20260507083056 | 53 | 173 | 2.0 | 6.0 | 0.00 | 0.00 | 0.00 | 71 | 1016.4 |
| 20260507081552 | 52 | 89 | 0.0 | 7.0 | 0.00 | 0.00 | 0.00 | 73 | 1016.3 |
| 20260507080121 | 51 | 46 | 2.0 | 6.0 | 0.00 | 0.00 | 0.00 | 74 | 1016.3 |
| 20260507074601 | 51 | 38 | 0.0 | 6.0 | 0.00 | 0.00 | 0.00 | 75 | 1016.1 |
| 20260507073108 | 50 | 111 | 2.0 | 6.0 | 0.00 | 0.00 | 0.00 | 76 | 1016.1 |
| 20260507071606 | 49 | 82 | 2.0 | 6.0 | 0.00 | 0.00 | 0.00 | 79 | 1016.0 |
| 20260507070054 | 48 | 87 | 3.0 | 9.0 | 0.00 | 0.00 | 0.00 | 81 | 1016.0 |
| 20260507064557 | 47 | 71 | 2.0 | 7.0 | 0.00 | 0.00 | 0.00 | 82 | 1015.9 |
| 20260507063058 | 47 | 75 | 2.0 | 7.0 | 0.00 | 0.00 | 0.00 | 83 | 1016.0 |
| 20260507061554 | 46 | 51 | 1.0 | 4.0 | 0.00 | 0.00 | 0.00 | 83 | 1015.9 |
| 20260507060053 | 46 | 44 | 1.0 | 5.0 | 0.00 | 0.00 | 0.00 | 83 | 1015.8 |
| 20260507054605 | 46 | 28 | 0.0 | 4.0 | 0.00 | 0.00 | 0.00 | 83 | 1015.7 |
| 20260507053055 | 46 | 33 | 1.0 | 5.0 | 0.00 | 0.00 | 0.00 | 83 | 1015.7 |
| 20260507051552 | 46 | 32 | 0.0 | 3.0 | 0.00 | 0.00 | 0.00 | 83 | 1015.6 |
| 20260507050057 | 46 | 36 | 0.0 | 4.0 | 0.00 | 0.00 | 0.00 | 83 | 1015.5 |
| 20260507044600 | 46 | 42 | 0.0 | 4.0 | 0.00 | 0.00 | 0.00 | 83 | 1015.4 |
| 20260507043052 | 46 | 0 | 0.0 | 5.0 | 0.00 | 0.00 | 0.00 | 83 | 1015.3 |
| 20260507041601 | 46 | 0 | 1.0 | 3.0 | 0.00 | 0.00 | 0.00 | 83 | 1015.3 |
| 20260507040105 | 46 | 36 | 0.0 | 3.0 | 0.00 | 0.00 | 0.00 | 83 | 1015.3 |
| 20260507034559 | 46 | 27 | 1.0 | 3.0 | 0.00 | 0.00 | 0.00 | 83 | 1015.3 |
| 20260507033057 | 46 | 0 | 0.0 | 3.0 | 0.00 | 0.00 | 0.00 | 83 | 1015.2 |
| 20260507031606 | 46 | 32 | 0.0 | 3.0 | 0.00 | 0.00 | 0.00 | 83 | 1015.3 |
| 20260507030056 | 46 | 0 | 0.0 | 3.0 | 0.00 | 0.00 | 0.00 | 83 | 1015.3 |
| 20260507024557 | 46 | 5 | 0.0 | 3.0 | 0.00 | 0.00 | 0.00 | 83 | 1015.3 |
| 20260507023056 | 46 | 25 | 0.0 | 4.0 | 0.00 | 0.00 | 0.00 | 82 | 1015.2 |
| 20260507021556 | 46 | 0 | 0.0 | 3.0 | 0.00 | 0.00 | 0.00 | 82 | 1015.2 |
| 20260507014608 | 46 | 30 | 0.0 | 3.0 | 0.00 | 0.00 | 0.00 | 81 | 1015.1 |
| 20260507013054 | 47 | 0 | 0.0 | 3.0 | 0.00 | 0.00 | 0.00 | 81 | 1015.1 |
| 20260507011603 | 47 | 50 | 1.0 | 4.0 | 0.00 | 0.00 | 0.00 | 81 | 1015.0 |
| 20260507010057 | 47 | 64 | 0.0 | 3.0 | 0.00 | 0.00 | 0.00 | 81 | 1015.0 |
| 20260507004602 | 47 | 0 | 0.0 | 3.0 | 0.00 | 0.00 | 0.00 | 81 | 1015.0 |
| 20260507003104 | 47 | 57 | 1.0 | 4.0 | 0.00 | 0.00 | 0.00 | 80 | 1015.0 |
| 20260507001615 | 48 | 0 | 0.0 | 3.0 | 0.00 | 0.00 | 0.00 | 80 | 1015.0 |
| 20260507000059 | 48 | 0 | 1.0 | 5.0 | 0.00 | 0.00 | 0.00 | 80 | 1015.2 |
| 20260506234607 | 48 | 0 | 2.0 | 4.0 | 0.00 | 0.00 | 0.00 | 80 | 1015.2 |
| 20260506233056 | 48 | 77 | 1.0 | 5.0 | 0.00 | 0.00 | 0.00 | 80 | 1015.2 |
| 20260506231558 | 48 | 51 | 2.0 | 6.0 | 0.00 | 0.00 | 0.00 | 80 | 1015.1 |
| 20260506230100 | 48 | 74 | 0.0 | 4.0 | 0.00 | 0.00 | 0.00 | 80 | 1015.0 |
| 20260506224556 | 48 | 76 | 1.0 | 4.0 | 0.00 | 0.00 | 0.00 | 80 | 1014.9 |